Home   Weather   Santorini   Past weeks

Flag for Greece Past Weather in Santorini, Greece — Yesterday and Last 2 Weeks

Now
63 °F

Scattered clouds.


Feels Like: 63 °F
Forecast: 55 / 61 °F
Wind: 9 mph from Southwest

Location: Santorini Island

Current Time: Jan 17, 2017 at 5:16:58 pm

Latest Report: Jan 17, 2017 at 4:20 pm


Visibility: N/A

Pressure: 29.89 "Hg

Humidity: 42%

Dew Point: 39 °F

Location of SantoriniLocation

Past Weather in Santorini — Graph

°F

Santorini Temperature Yesterday

Maximum temperature yesterday: 61 °F (at 11:50 am)
Minimum temperature yesterday: 52 °F (at 7:20 pm)
Average temperature yesterday: 57 °F

High & Low Weather Summary for the Past Weeks

 TemperatureHumidityPressure
High63 °F (Jan 5, 1:20 pm)93% (Jan 8, 12:20 am)30.18 "Hg (Jan 8, 12:20 am)
Low37 °F (Jan 8, 12:20 am)45% (Jan 11, 2:50 pm)29.56 "Hg (Jan 6, 11:50 pm)
Average53 °F68%29.93 "Hg
* Reported Jan 2 3:50 pm — Jan 17 3:50 pm, Santorini, Weather by CustomWeather, © 2017

Note: Actual official high and low records may vary slightly from our data, if they occured in-between our weather recording intervals... More about our weather records

Advertising

Santorini Weather History for the Previous 24 Hours

Scroll right to see more
 ConditionsComfort  
Time TempWeatherWind HumidityBarometerVisibility
3:50 pm
Tue, Jan 17
61 °FScattered clouds.No wind48%29.89 "HgN/A
3:20 pm63 °FScattered clouds.8 mph45%29.89 "HgN/A
2:50 pm63 °FScattered clouds.6 mph49%29.89 "HgN/A
2:20 pm63 °FScattered clouds.12 mph52%29.89 "HgN/A
1:50 pm63 °FScattered clouds.10 mph52%29.89 "HgN/A
1:20 pm61 °FScattered clouds.12 mph59%29.89 "HgN/A
12:50 pm63 °FScattered clouds.10 mph56%29.92 "HgN/A
12:20 pm63 °FScattered clouds.12 mph56%29.92 "HgN/A
11:50 am61 °FScattered clouds.12 mph63%29.92 "HgN/A
11:20 am61 °FScattered clouds.12 mph63%29.95 "HgN/A
10:50 am59 °FScattered clouds.9 mph68%29.95 "HgN/A
9:50 am61 °FScattered clouds.6 mph63%29.95 "HgN/A
9:20 am61 °FScattered clouds.No wind63%29.95 "HgN/A
8:50 am59 °FScattered clouds.No wind63%29.95 "HgN/A
8:20 am59 °FPartly sunny.No wind68%29.92 "HgN/A
7:50 am57 °FScattered clouds.9 mph72%29.92 "HgN/A
7:20 am55 °FPassing clouds.No wind72%29.92 "HgN/A
6:50 am55 °FPassing clouds.No wind72%29.92 "HgN/A
6:20 am55 °FPassing clouds.7 mph72%29.89 "HgN/A
5:50 am57 °FLight rain. Overcast.6 mph67%29.89 "HgN/A
5:20 am57 °FLight rain. Overcast.7 mph72%29.89 "HgN/A
4:50 am57 °FLight rain. Overcast.8 mph72%29.89 "HgN/A
4:20 am57 °FLight rain. Overcast.10 mph72%29.92 "HgN/A
3:50 am57 °FLight rain. Overcast.9 mph72%29.92 "HgN/A
3:20 am55 °FLight rain. Overcast.7 mph77%29.92 "HgN/A
2:50 am55 °FLight rain. Overcast.10 mph72%29.92 "HgN/A
2:20 am55 °FLight rain. Overcast.12 mph72%29.95 "HgN/A
1:50 am57 °FLight rain. Overcast.7 mph63%29.92 "HgN/A
1:20 am57 °FLight rain. Overcast.6 mph67%29.92 "HgN/A
12:50 am55 °FLight rain. Overcast.9 mph72%29.92 "HgN/A
12:20 am55 °FLight rain. Overcast.12 mph72%29.95 "HgN/A
11:50 pm
Mon, Jan 16
57 °FLight rain. Overcast.8 mph72%29.95 "HgN/A
11:20 pm59 °FLight rain. Overcast.9 mph63%29.95 "HgN/A
10:50 pm59 °FLight rain. Overcast.7 mph63%29.95 "HgN/A
10:20 pm57 °FLight rain. Overcast.8 mph67%29.95 "HgN/A
9:50 pm57 °FLight rain. Overcast.7 mph63%29.95 "HgN/A
9:20 pm54 °FPassing clouds.7 mph72%29.92 "HgN/A
8:50 pm54 °FPassing clouds.No wind77%29.92 "HgN/A
8:20 pm52 °FPassing clouds.6 mph82%29.92 "HgN/A
7:50 pm52 °FPassing clouds.No wind82%29.92 "HgN/A
7:20 pm52 °FPassing clouds.6 mph82%29.92 "HgN/A
6:50 pm54 °FPassing clouds.6 mph77%29.92 "HgN/A
6:20 pm55 °FPassing clouds.9 mph72%29.92 "HgN/A
5:50 pm57 °FPassing clouds.12 mph63%29.89 "HgN/A
5:20 pm59 °FScattered clouds.14 mph59%29.89 "HgN/A
Weather by CustomWeather, © 2017

See weather overviewHow to use our weather pages